Location: Bieujac
(44.5398°N, 0.1549°W)
Time: 15:30:40
(UTC+00:00)

Cosmos 1459 Rocket - Pass Details

Date: 17 November 2019
Orbit: 938 x 999 km, 83.0° (Epoch: 07 December)

Event Time Altitude Azimuth Distance (km) Brightness Sun altitude
Rises 05:56:45 0° 213° (SSW) 3,628 6.8 -11.2°
Reaches altitude 10° 05:59:27 10° 221° (SW) 2,696 6.1 -10.7°
Maximum altitude 06:05:04 36° 287° (WNW) 1,500 4.5 -9.8°
Drops below altitude 10° 06:10:49 10° 353° (N) 2,750 6.1 -8.8°
Sets 06:13:37 0° 2° (N) 3,711 6.9 -8.3°
